Temperature
27 27 27 27 27 27 27 28 28 28 29 29 27 26 24 23 22 21 21 20 19 19 18 18 18 17 17 17 17 17 17 17 17 17 17 17 16 16 16 16 16 16 16 16
25 26 27 26 27 27 27 27 28 28 28 28 26 24 23 22 21 21 20 19 19 18 18 17 17 17 17 17 17 16 16 16 16 16 16 16 16 16 16 16 16 15 15 15
25 26 25 25 26 27 27 27 27 27 28 27 25 24 22 21 21 20 19 18 18 17 17 17 17 17 17 16 16 16 16 16 16 16 16 16 16 15 16 16 15 15 15 15
24 24 23 26 27 27 26 27 27 27 27 25 24 21 19 19 19 18 18 17 17 16 16 16 16 16 16 16 16 16 16 16 15 15 15 15 15 15 15 15 15 15 14 14
23 23 24 25 25 25 25 25 26 26 25 23 21 19 18 17 17 17 16 16 15 15 16 15 15 15 15 15 15 15 15 15 15 15 15 15 15 15 14 14 14 14 14 13
21 21 22 24 24 23 24 24 25 25 23 22 21 22 19 15 15 15 15 15 15 15 15 15 14 15 15 15 14 14 14 14 14 14 14 14 14 14 14 13 13 13 13 12
21 21 22 23 22 22 22 23 22 22 21 21 22 21 16 14 14 14 14 14 14 14 14 14 14 14 14 14 13 13 14 13 13 13 13 13 13 13 13 12 12 12 12 11
20 20 21 21 21 21 21 20 20 20 20 19 18 15 14 13 13 13 13 13 13 13 13 13 13 13 13 13 13 13 13 13 13 13 12 12 12 12 12 11 11 11 11 10
20 20 20 19 19 18 18 18 18 19 18 17 15 14 13 12 12 12 12 12 12 12 12 12 12 12 12 12 12 12 12 12 12 12 12 11 11 11 11 11 11 10 10 10
18 19 19 18 18 17 17 17 17 17 16 15 14 13 12 12 11 11 11 11 11 11 11 11 11 11 12 11 11 12 11 11 11 11 11 11 10 10 10 10 10 10 9 9
17 17 17 17 16 16 16 16 15 15 14 14 13 12 11 11 11 11 11 11 11 11 11 11 11 11 11 11 11 11 11 10 10 10 10 10 10 10 9 9 9 9 8 8
16 16 16 15 14 14 14 14 14 13 13 12 12 11 11 11 10 10 11 11 11 11 11 10 10 10 11 11 11 11 10 10 10 10 9 9 9 9 8 8 8 8 8 7
14 14 13 13 12 12 12 12 12 12 12 11 11 11 10 10 10 10 10 10 10 10 10 10 10 10 10 10 10 10 10 10 10 10 9 9 9 8 8 7 7 7 6 6
13 13 13 12 12 11 11 11 11 11 11 10 10 10 10 10 10 10 10 10 10 10 10 10 10 10 10 10 9 9 9 9 9 9 9 9 8 8 8 7 7 6 5 5
13 12 12 11 11 11 10 10 10 10 10 9 9 9 10 10 10 10 10 10 10 10 10 9 9 9 9 9 9 9 9 9 9 8 8 8 8 8 7 7 6 6 5 5
12 11 11 11 10 10 10 10 10 9 9 9 9 9 9 9 9 9 9 10 10 9 9 9 9 9 9 9 9 8 8 8 8 8 8 8 7 7 7 6 6 5 5 4
12 12 11 11 10 10 10 10 10 10 9 9 9 9 9 9 9 9 9 9 9 9 9 9 9 8 8 8 8 8 8 7 7 8 7 7 7 6 6 6 5 5 4 3
12 12 11 11 10 10 10 10 10 10 10 10 10 10 10 10 10 9 9 9 9 9 8 8 8 8 8 7 7 8 8 7 7 7 6 6 6 6 5 5 5 4 4 4
11 11 11 11 11 10 10 10 10 10 10 10 10 10 10 10 9 9 9 9 9 8 8 8 8 7 7 7 7 7 7 7 7 6 6 5 5 5 5 5 4 4 4 3
11 11 11 11 11 11 10 10 10 10 10 10 10 10 9 9 9 9 9 9 9 8 8 8 7 7 7 7 7 7 7 7 6 6 5 5 5 5 4 4 4 3 3 3
11 11 11 11 11 10 10 10 10 10 10 10 10 10 9 9 9 9 9 9 8 8 8 7 7 7 7 6 7 7 6 6 6 5 5 5 4 4 4 3 3 3 3 2
11 11 11 11 11 10 10 10 10 10 10 10 10 9 9 9 9 9 8 8 8 8 7 7 7 6 6 6 6 6 6 5 5 5 5 4 4 4 3 3 3 2 2 2
11 11 11 11 10 10 10 10 10 10 10 9 9 9 9 9 9 9 8 8 7 7 7 6 6 6 6 6 6 5 5 5 5 4 4 4 3 3 3 2 2 2 1 1
10 10 10 10 10 10 10 10 10 9 9 9 9 9 9 9 8 8 8 7 7 6 6 6 6 5 5 5 5 5 4 4 4 4 3 3 3 3 2 2 2 1 1 0
10 10 10 10 10 10 10 9 9 9 9 9 8 8 8 8 8 7 7 7 6 6 6 5 5 5 5 5 4 4 4 3 3 3 3 3 2 2 2 1 1 1 0 0
10 10 10 10 10 10 10 10 10 9 9 9 8 8 8 7 7 7 6 6 6 5 5 5 5 4 4 4 4 3 3 3 3 3 2 2 2 2 1 1 0 0 0 -0
10 10 9 9 9 9 9 9 9 9 8 8 8 7 7 7 7 6 6 6 5 5 5 5 4 4 4 4 3 3 3 3 3 2 2 2 1 1 1 1 0 0 -0 -0
Wind_Speed
12 10 9 12 13 13 16 16 16 13 11 7 5 6 7 8 8 9 9 9 10 9 8 7 8 7 8 8 9 10 10 10 10 9 9 8 8 7 7 7 7 7 6 6
13 13 13 15 16 16 17 17 17 16 14 6 4 6 7 9 9 9 9 9 9 9 8 7 7 7 8 8 8 9 9 8 8 8 7 7 7 6 6 5 5 5 5 5
14 12 13 18 18 19 18 17 17 18 13 6 7 7 7 9 9 9 8 8 8 8 8 7 7 7 7 8 9 9 8 7 8 8 7 6 6 6 5 5 4 4 4 3
12 12 17 12 7 11 15 17 16 13 8 7 6 7 6 6 8 9 9 9 9 8 9 8 9 9 9 10 10 9 9 8 8 8 8 7 6 5 4 4 4 3 3 3
10 15 15 12 7 7 11 14 12 12 9 7 10 10 7 6 8 9 10 10 9 10 10 10 10 11 12 12 11 10 10 9 8 8 8 8 7 6 6 6 6 6 6 6
10 13 13 7 2 4 8 12 6 6 8 11 13 8 6 9 10 11 11 10 10 11 12 12 11 12 13 13 12 11 10 10 9 9 9 9 9 8 7 8 8 8 9 9
14 14 10 3 3 3 9 5 4 4 7 12 10 4 13 14 12 12 12 12 13 13 13 12 12 13 14 13 13 12 12 12 11 11 11 11 10 9 9 9 10 10 10 10
9 12 9 3 3 5 6 8 6 4 5 7 10 16 17 16 15 14 14 14 14 14 13 12 12 14 15 14 12 12 13 13 12 12 11 11 11 10 9 9 10 9 9 8
6 6 4 5 7 8 9 9 7 3 5 12 16 17 18 17 15 15 15 14 14 15 15 13 13 14 15 13 12 13 14 13 13 12 11 10 10 9 8 7 7 7 6 6
8 9 9 9 9 8 8 8 5 4 10 14 18 19 18 16 16 16 16 15 15 16 16 15 14 14 13 12 12 13 13 12 11 11 11 10 8 8 8 7 7 6 6 5
10 9 9 7 6 5 4 0 5 9 12 16 20 20 18 16 16 16 15 14 15 15 16 16 14 14 13 12 12 13 12 11 11 11 11 11 11 10 10 10 9 7 6 6
6 6 6 5 5 3 3 6 10 13 15 17 19 20 19 17 16 15 15 14 15 16 16 15 14 13 12 11 11 11 10 9 9 8 8 9 10 11 15 12 14 15 15 11
5 4 3 2 3 4 6 9 12 15 19 20 19 19 19 18 16 15 15 15 15 15 15 14 13 13 11 10 10 10 9 8 7 7 7 6 6 7 7 8 10 12 13 12
2 1 1 4 6 9 13 15 17 18 19 19 19 19 18 18 16 15 15 14 14 14 14 13 13 12 10 10 9 9 9 8 7 6 6 5 5 4 4 4 4 5 8 8
2 4 7 9 11 13 15 17 19 19 20 19 17 18 18 17 16 15 14 13 13 13 13 12 12 10 8 8 8 8 7 6 6 6 5 5 4 4 4 4 4 4 3 4
7 10 12 14 14 15 16 18 19 19 18 18 17 16 15 15 15 13 12 12 12 12 11 10 10 8 7 7 7 7 7 7 4 4 5 4 4 4 4 4 4 4 4 6
10 12 14 16 16 16 16 17 18 18 18 17 17 16 15 15 14 13 12 11 11 10 9 9 8 7 6 6 5 5 5 6 3 3 5 5 4 4 4 4 4 4 5 6
11 13 14 16 16 17 17 17 17 17 17 17 16 15 14 13 13 12 11 11 10 9 8 7 7 7 6 6 4 4 4 3 3 4 4 4 4 4 4 4 4 4 4 3
15 16 16 16 16 16 16 16 16 16 15 15 14 14 12 12 11 10 10 9 9 8 7 7 5 6 6 5 3 3 3 4 4 4 4 3 2 4 4 4 4 4 5 5
16 16 17 17 16 16 16 16 15 14 13 13 13 13 12 11 10 9 9 7 6 6 6 5 5 5 5 4 2 3 3 3 3 3 3 3 3 3 3 4 4 4 5 5
17 18 18 17 16 15 15 14 14 13 12 12 11 11 11 10 9 8 7 7 7 6 6 4 3 3 3 3 2 2 3 3 3 3 2 3 3 3 3 4 4 5 5 5
15 16 17 16 15 14 13 12 12 12 11 10 11 11 10 9 8 7 6 5 6 3 3 3 4 6 4 1 2 3 4 3 3 3 3 3 3 3 3 4 4 4 4 5
13 14 14 14 14 13 13 12 11 10 10 10 9 8 7 6 5 5 5 5 5 3 2 5 7 5 2 1 3 3 4 4 3 3 3 3 3 3 3 4 4 4 5 5
13 13 13 12 12 12 12 11 10 9 9 8 8 7 6 5 4 4 6 7 6 4 5 8 7 3 3 2 3 3 3 3 3 3 3 3 3 3 4 4 4 4 5 5
12 12 12 12 11 10 10 9 9 8 8 7 7 6 4 4 4 5 6 7 8 6 6 7 6 3 2 3 3 4 3 4 3 2 3 3 3 3 3 4 4 4 4 5
10 10 9 8 7 6 6 6 5 5 5 5 5 5 4 4 5 5 5 7 8 6 5 6 5 5 4 4 4 3 4 4 3 2 3 3 3 3 3 3 4 4 4 5
10 9 8 7 7 6 5 5 5 5 4 4 4 4 4 4 4 5 6 6 6 5 5 5 5 4 4 4 4 4 3 3 3 2 2 2 2 2 2 2 3 4 4 5
Wind_Direction
264 272 262 253 244 234 236 250 260 263 261 249 204 182 169 164 161 158 155 155 153 151 151 155 157 161 166 171 173 174 176 177 178 183 185 186 192 197 199 205 213 216 218 221
257 255 256 255 250 246 245 249 255 261 263 262 168 165 164 166 164 161 156 154 150 146 146 149 150 152 154 156 158 160 164 166 166 166 169 170 172 174 177 185 199 203 209 211
256 254 259 252 247 247 248 247 249 253 257 212 184 173 167 165 164 157 150 143 140 141 140 141 141 142 140 138 138 138 140 148 150 149 150 154 159 164 167 170 179 186 187 185
259 255 250 254 263 260 257 255 253 255 245 208 182 143 131 147 153 147 142 136 131 129 127 127 125 124 124 122 121 120 118 121 131 133 134 136 136 135 135 133 130 126 109 98
253 250 253 253 252 257 259 259 254 244 221 181 142 132 120 118 127 129 125 122 120 119 117 114 114 115 113 110 108 106 104 102 105 110 111 110 108 105 100 98 93 90 83 77
244 251 253 257 283 282 264 254 251 235 203 177 172 188 154 130 119 114 111 109 109 109 107 106 108 111 108 104 101 97 95 92 91 93 98 97 93 90 89 89 87 84 77 70
244 247 253 304 333 271 243 267 337 255 206 191 200 158 129 127 117 113 109 108 106 103 100 101 105 105 100 96 93 93 93 90 87 87 89 91 91 91 94 94 92 88 84 77
242 244 242 18 310 270 307 331 316 272 202 167 126 118 124 122 117 114 111 108 106 101 96 95 99 101 97 93 94 94 91 87 84 83 84 88 90 91 93 98 99 95 91 85
259 266 320 321 297 297 295 290 290 249 157 139 131 129 125 122 118 114 110 108 105 103 98 93 92 96 96 96 98 96 92 89 87 85 83 85 88 91 91 89 90 90 89 84
267 269 286 295 295 293 283 274 264 171 145 139 132 129 126 121 118 114 111 109 108 103 98 93 92 92 95 99 100 98 96 95 94 91 86 77 72 72 71 69 75 77 73 71
268 280 290 286 303 310 314 195 135 132 133 134 130 128 125 120 117 113 109 106 105 102 100 97 95 93 92 94 97 97 96 96 94 90 87 80 70 55 64 55 47 51 58 54
279 294 293 308 342 14 82 120 126 126 124 124 126 125 121 117 114 112 110 108 105 102 99 97 94 90 87 89 93 96 98 98 98 99 99 101 99 85 60 68 68 61 50 47
274 291 312 351 34 64 94 108 114 117 120 120 120 120 118 115 115 112 109 108 105 102 100 98 94 89 85 85 87 88 90 90 93 95 99 99 102 106 107 96 86 79 74 64
238 213 93 75 86 94 99 102 104 106 111 114 116 115 114 113 112 110 109 109 107 104 101 98 93 86 84 85 87 90 93 89 88 89 86 83 81 80 81 86 98 96 99 94
87 103 106 98 96 102 106 109 109 110 112 112 113 115 116 116 115 113 113 113 110 107 103 99 92 85 81 86 88 87 86 85 80 83 83 79 76 72 68 63 61 59 62 101
112 110 108 104 102 105 107 108 111 114 116 116 116 116 117 116 115 116 116 116 112 106 102 98 92 87 82 85 92 93 87 66 61 84 83 77 67 60 57 52 50 45 35 25
125 120 118 115 112 111 110 113 116 119 119 119 120 121 121 120 119 117 115 110 105 102 100 97 92 89 86 84 84 90 96 104 125 83 68 59 56 53 49 39 35 33 44 50
112 115 115 117 118 117 117 119 120 121 121 123 125 127 127 126 124 121 118 114 109 102 94 93 93 94 90 82 75 83 99 98 81 69 71 57 48 50 46 41 33 22 23 66
109 110 111 113 117 119 119 120 120 120 123 127 128 127 126 125 125 125 125 123 119 111 100 97 100 105 96 83 71 100 90 92 87 78 78 94 56 47 41 33 26 20 14 11
109 110 111 112 113 114 116 118 120 121 124 126 126 125 124 124 125 125 122 113 99 101 114 111 116 103 105 91 318 96 85 83 86 87 74 59 52 46 37 28 21 17 14 11
114 115 113 112 111 112 115 118 120 121 124 125 126 127 126 126 128 129 128 117 106 105 116 131 123 106 97 104 235 99 97 90 89 79 68 58 51 43 32 21 16 14 12 6
112 113 113 113 113 113 113 115 117 119 121 123 126 128 129 130 129 122 106 106 122 127 146 128 102 74 53 296 111 93 90 85 79 73 64 54 50 41 31 19 13 14 9 3
113 114 114 114 114 113 114 114 116 118 120 121 123 127 129 126 132 133 124 117 127 137 117 89 92 95 312 224 91 92 89 87 79 75 67 57 50 39 30 23 19 13 6 3
115 113 113 114 114 114 114 112 111 113 116 117 118 121 127 131 127 112 108 114 109 120 105 102 115 131 254 130 105 97 93 89 81 74 69 59 46 38 33 26 22 17 11 5
114 115 116 119 116 113 115 117 116 117 118 116 117 118 115 109 114 113 118 124 131 140 124 127 147 200 195 100 101 98 91 73 58 47 63 51 39 39 35 30 23 14 10 6
111 110 103 98 99 111 120 121 121 122 121 119 116 114 113 115 119 124 130 134 135 133 133 141 152 182 134 114 105 104 111 120 117 87 60 51 49 43 38 28 20 11 8 4
110 108 106 102 97 92 95 98 100 101 102 109 114 112 113 119 126 131 135 139 142 144 142 145 141 134 123 120 120 118 109 100 89 75 73 63 49 40 36 20 5 1 353 355
Height
1448 1445 1446 1448 1448 1449 1452 1449 1450 1445 1443 1443 1448 1453 1459 1463 1466 1468 1471 1473 1475 1477 1480 1482 1484 1486 1489 1491 1494 1497 1499 1501 1504 1507 1510 1513 1516 1518 1521 1523 1525 1527 1529 1531
1454 1448 1447 1448 1446 1446 1446 1445 1445 1444 1444 1441 1448 1454 1458 1462 1465 1467 1470 1472 1474 1477 1479 1481 1483 1485 1488 1490 1492 1495 1497 1500 1502 1505 1508 1511 1513 1515 1517 1520 1522 1524 1525 1527
1455 1447 1449 1452 1442 1441 1441 1439 1440 1442 1440 1442 1449 1453 1457 1461 1463 1466 1469 1471 1474 1476 1478 1480 1482 1484 1487 1489 1491 1494 1496 1498 1501 1503 1506 1509 1511 1513 1515 1517 1519 1521 1522 1523
1454 1455 1464 1441 1435 1435 1437 1436 1435 1436 1439 1444 1449 1456 1460 1462 1463 1466 1469 1471 1473 1476 1478 1480 1482 1484 1487 1489 1491 1493 1495 1497 1499 1502 1505 1508 1510 1512 1513 1515 1516 1518 1519 1520
1456 1455 1448 1439 1436 1438 1440 1437 1434 1436 1440 1446 1452 1457 1461 1463 1465 1467 1469 1471 1474 1476 1478 1480 1483 1485 1487 1490 1492 1494 1496 1499 1500 1502 1504 1507 1509 1510 1512 1513 1515 1516 1517 1517
1457 1460 1455 1440 1437 1439 1441 1441 1435 1437 1440 1446 1450 1451 1459 1464 1466 1468 1470 1472 1474 1477 1479 1481 1484 1487 1489 1491 1493 1495 1498 1500 1502 1503 1505 1507 1508 1510 1511 1512 1514 1515 1516 1516
1455 1455 1444 1439 1441 1442 1447 1441 1440 1440 1442 1445 1446 1448 1458 1463 1466 1469 1472 1474 1476 1478 1481 1484 1487 1489 1490 1493 1495 1497 1499 1501 1503 1505 1506 1508 1509 1511 1512 1513 1514 1515 1516 1516
1452 1454 1448 1442 1442 1443 1443 1443 1442 1442 1443 1445 1449 1453 1458 1463 1467 1470 1474 1477 1479 1481 1483 1487 1489 1491 1493 1495 1498 1500 1501 1503 1505 1507 1508 1510 1511 1513 1514 1514 1515 1515 1516 1517
1449 1446 1444 1446 1446 1446 1445 1444 1443 1443 1444 1447 1451 1456 1461 1465 1469 1473 1476 1479 1482 1484 1487 1490 1493 1495 1496 1498 1501 1503 1504 1506 1507 1509 1510 1512 1513 1515 1516 1516 1517 1518 1518 1519
1449 1444 1445 1445 1443 1443 1442 1442 1442 1443 1446 1449 1453 1459 1464 1468 1472 1476 1480 1483 1486 1488 1490 1493 1497 1499 1500 1502 1504 1506 1507 1509 1510 1512 1513 1514 1515 1517 1517 1518 1519 1519 1519 1520
1448 1446 1445 1443 1443 1442 1441 1441 1442 1444 1447 1451 1455 1461 1466 1471 1475 1480 1483 1488 1490 1492 1495 1498 1501 1503 1505 1506 1508 1509 1510 1512 1514 1515 1515 1516 1517 1517 1518 1519 1519 1520 1520 1520
1448 1446 1446 1445 1443 1442 1442 1442 1443 1445 1449 1454 1459 1464 1469 1474 1480 1484 1487 1492 1495 1497 1500 1502 1505 1507 1508 1510 1511 1513 1514 1516 1517 1518 1519 1519 1519 1519 1519 1520 1520 1520 1519 1518
1448 1447 1446 1445 1445 1444 1443 1444 1446 1449 1453 1458 1464 1469 1473 1478 1484 1489 1493 1496 1499 1501 1504 1507 1509 1510 1512 1514 1515 1516 1517 1518 1520 1521 1521 1522 1522 1522 1522 1521 1520 1519 1519 1518
1447 1447 1447 1446 1446 1446 1447 1448 1451 1455 1459 1464 1469 1474 1478 1483 1489 1493 1498 1501 1503 1506 1509 1511 1513 1514 1516 1517 1518 1518 1519 1520 1521 1522 1523 1523 1524 1524 1524 1524 1523 1521 1519 1517
1448 1448 1448 1449 1450 1451 1452 1454 1457 1461 1466 1470 1475 1480 1484 1489 1494 1498 1502 1506 1508 1510 1513 1515 1516 1518 1519 1519 1520 1521 1522 1522 1522 1523 1524 1524 1524 1524 1524 1524 1523 1523 1521 1519
1450 1451 1452 1453 1454 1456 1458 1459 1462 1468 1472 1476 1482 1486 1491 1495 1499 1503 1507 1510 1512 1514 1516 1517 1518 1520 1521 1521 1522 1522 1522 1522 1523 1525 1525 1525 1525 1525 1524 1524 1523 1522 1521 1520
1452 1454 1455 1458 1460 1463 1465 1467 1470 1474 1478 1483 1487 1492 1496 1500 1503 1507 1510 1513 1515 1516 1518 1519 1520 1521 1522 1523 1523 1524 1524 1524 1524 1526 1526 1525 1525 1525 1524 1524 1523 1523 1521 1519
1455 1457 1459 1461 1464 1467 1471 1474 1478 1481 1485 1488 1492 1497 1500 1504 1507 1510 1513 1515 1517 1519 1520 1521 1522 1522 1523 1523 1524 1525 1525 1526 1526 1526 1526 1525 1525 1525 1524 1524 1523 1523 1522 1520
1460 1462 1465 1467 1471 1474 1477 1480 1484 1487 1491 1495 1498 1501 1504 1507 1510 1513 1515 1517 1519 1520 1522 1522 1523 1524 1524 1524 1525 1525 1526 1526 1526 1526 1526 1525 1525 1525 1525 1524 1523 1522 1521 1520
1465 1468 1470 1473 1477 1480 1483 1486 1489 1492 1496 1499 1502 1505 1508 1511 1513 1515 1517 1519 1520 1522 1522 1523 1524 1525 1525 1524 1525 1526 1526 1526 1526 1526 1526 1526 1525 1525 1524 1524 1523 1522 1521 1520
1471 1474 1476 1479 1482 1486 1488 1491 1494 1497 1500 1503 1506 1508 1510 1513 1515 1517 1518 1520 1521 1522 1523 1523 1524 1525 1525 1525 1525 1526 1526 1526 1526 1526 1526 1526 1525 1525 1524 1523 1523 1522 1520 1519
1477 1479 1482 1485 1488 1491 1494 1496 1499 1501 1504 1506 1509 1511 1513 1515 1516 1518 1519 1521 1521 1522 1523 1524 1525 1524 1524 1525 1526 1526 1526 1526 1526 1526 1526 1525 1525 1524 1524 1523 1522 1521 1520 1518
1482 1485 1487 1490 1492 1495 1498 1500 1502 1504 1506 1509 1510 1512 1514 1516 1517 1518 1520 1520 1521 1522 1523 1523 1523 1523 1523 1525 1526 1526 1526 1526 1526 1526 1525 1525 1525 1524 1523 1523 1522 1521 1519 1518
1487 1489 1492 1494 1497 1499 1501 1504 1505 1507 1509 1510 1512 1513 1515 1516 1518 1519 1519 1519 1520 1521 1522 1522 1522 1523 1523 1525 1525 1526 1526 1526 1526 1525 1525 1525 1524 1524 1523 1522 1521 1520 1519 1517
1491 1494 1496 1498 1500 1502 1504 1506 1507 1509 1511 1512 1513 1514 1516 1517 1518 1518 1519 1519 1520 1521 1522 1522 1522 1523 1524 1525 1525 1525 1525 1525 1525 1525 1525 1525 1524 1524 1523 1522 1521 1519 1518 1516
1495 1497 1499 1501 1503 1505 1506 1508 1509 1511 1512 1513 1514 1515 1516 1516 1517 1518 1518 1519 1519 1520 1521 1522 1522 1523 1524 1524 1524 1525 1525 1525 1525 1525 1525 1524 1524 1523 1522 1521 1520 1519 1517 1515
1498 1500 1502 1503 1505 1506 1507 1509 1510 1511 1512 1514 1514 1515 1516 1516 1517 1517 1518 1519 1520 1521 1521 1522 1523 1523 1524 1524 1524 1525 1525 1525 1525 1525 1525 1524 1524 1523 1522 1521 1520 1518 1516 1515